Flag Weather past 2 weeks in Funchal, Madeira, Portugal

Now
59 °F

Passing clouds.


Feels Like: 59 °F
Forecast: 62 / 66 °F
Wind: 5 mph from North

Location: Aeroporto Da Madeira

Current Time: Nov 24, 2014 at 2:46:10 AM

Latest Report: Nov 24, 2014 at 2:00 AM


Visibility: N/A

Pressure: 30.18 "Hg

Humidity: 63%

Dew point: 46 °F

Location of FunchalLocation

Historic Weather in Funchal — Graph

°F

Funchal temperature yesterday

Maximum temperature yesterday: 63 °F (at 1:30 AM)
Minimum temperature yesterday: 59 °F (at 4:00 AM)
Average temperature yesterday: 62 °F

Past Weeks' High & Low Weather Summary

 TemperatureHumidityPressure
High77 °F (Nov 11, 1:00 PM)94% (Nov 16, 10:00 AM)30.24 "Hg (Nov 16, 10:00 AM)
Low55 °F (Nov 20, 5:30 AM)46% (Nov 19, 1:30 PM)29.59 "Hg (Nov 20, 3:30 AM)
Average65 °F70%29.94 "Hg
* Reported Nov 9 1:00 AM — Nov 24 1:30 AM, Funchal, Weather by CustomWeather, © 2014

Note: Actual official high and low records may vary slightly from our data, if they occured in-between our weather recording intervals... More about our weather records

Advertising

Funchal weather history for previous 24 hours

 ConditionsComfort  
Time TempWeatherWind HumidityBarometerVisibility
1:30 AM
Nov 24
59 °FPassing clouds.6 mph68%30.18 "HgN/A
1:00 AM61 °FPassing clouds.6 mph63%30.18 "HgN/A
12:30 AM59 °FPassing clouds.6 mph63%30.18 "HgN/A
12:00 AM59 °FPassing clouds.3 mph63%30.18 "HgN/A
11:30 PM
Nov 23
61 °FPassing clouds.3 mph59%30.18 "HgN/A
11:00 PM61 °FPassing clouds.3 mph59%30.18 "HgN/A
10:30 PM61 °FPassing clouds.6 mph55%30.18 "HgN/A
10:00 PM61 °FPassing clouds.7 mph55%30.18 "HgN/A
9:00 PM61 °FPassing clouds.7 mph63%30.18 "HgN/A
8:00 PM61 °FPassing clouds.7 mph55%30.15 "HgN/A
7:30 PM61 °FPassing clouds.9 mph55%30.15 "HgN/A
7:00 PM61 °FPassing clouds.6 mph59%30.12 "HgN/A
6:30 PM61 °FPassing clouds.7 mph59%30.12 "HgN/A
6:00 PM61 °FScattered clouds.14 mph55%30.12 "HgN/A
5:30 PM63 °FScattered clouds.9 mph59%30.09 "HgN/A
5:00 PM63 °FBroken clouds.12 mph59%30.09 "HgN/A
4:30 PM63 °FBroken clouds.10 mph59%30.09 "HgN/A
4:00 PM63 °FBroken clouds.10 mph59%30.09 "HgN/A
3:30 PM63 °FBroken clouds.12 mph64%30.09 "HgN/A
3:00 PM63 °FBroken clouds.14 mph64%30.07 "HgN/A
2:30 PM63 °FScattered clouds.10 mph68%30.07 "HgN/A
2:00 PM63 °FScattered clouds.15 mph68%30.07 "HgN/A
1:30 PM63 °FScattered clouds.17 mph64%30.07 "HgN/A
1:00 PM63 °FScattered clouds.18 mph68%30.07 "HgN/A
12:30 PM63 °FScattered clouds.17 mph68%30.07 "HgN/A
12:00 PM63 °FScattered clouds.21 mph73%30.07 "HgN/A
11:30 AM63 °FScattered clouds.23 mph68%30.04 "HgN/A
11:00 AM63 °FScattered clouds.20 mph73%30.04 "HgN/A
10:30 AM63 °FScattered clouds.20 mph73%30.04 "HgN/A
10:00 AM63 °FScattered clouds.22 mph73%30.01 "HgN/A
9:30 AM63 °FScattered clouds.20 mph73%30.01 "HgN/A
9:00 AM63 °FScattered clouds.22 mph73%29.98 "Hg6 mi
8:30 AM63 °FSprinkles. Partly sunny.22 mph73%29.95 "Hg6 mi
8:00 AM63 °FScattered clouds.25 mph73%29.95 "HgN/A
7:30 AM63 °FPassing clouds.25 mph68%29.95 "HgN/A
7:00 AM63 °FPassing clouds.24 mph73%29.92 "HgN/A
6:30 AM61 °FPassing clouds.25 mph77%29.92 "HgN/A
6:00 AM61 °FPassing clouds.23 mph77%29.92 "HgN/A
5:30 AM61 °FSprinkles. Passing clouds.24 mph77%29.92 "HgN/A
5:00 AM59 °FPassing clouds.25 mph82%29.92 "HgN/A
4:30 AM61 °FPassing clouds.22 mph77%29.89 "HgN/A
4:00 AM59 °FSprinkles. Passing clouds.25 mph72%29.89 "HgN/A
3:30 AM61 °FSprinkles. Passing clouds.21 mph72%29.89 "HgN/A
3:00 AM61 °FSprinkles. Passing clouds.26 mph72%29.89 "HgN/A
2:30 AM61 °FPassing clouds.24 mph68%29.86 "HgN/A
2:00 AM61 °FPassing clouds.22 mph68%29.89 "HgN/A
Weather by CustomWeather, © 2014

See weather overviewHow to use our weather pages